This demonstration page uses our WeatherBlox Daily Observations layout. Learn more.

Left ArrowRight Arrow

Hourly Observations for December 28, 2016

Temp ( °F °C ) Dew Point ( °F °C ) Humidity (%) Winds ( mph kmh ) Pressure ( in mb ) Visibility ( mi km ) Precip ( " mm )
12:51 am 00:51 Clear 39 3.9 36 2.2 89 89 Calm 30.22 1024 10 16 0.00 0.00
1:51 am 01:51 Clear 40 4.4 36 2.2 86 86 N 3 6 30.21 1023 10 16 0.00 0.00
2:51 am 02:51 Clear 39 3.9 35 1.7 86 86 NW 3 6 30.21 1023 10 16 0.00 0.00
3:51 am 03:51 Clear 35 1.7 33 0.6 93 93 Calm 30.22 1023 10 16 0.00 0.00
4:51 am 04:51 Clear 36 2.2 33 0.6 89 89 Calm 30.22 1023 10 16 0.00 0.00
5:51 am 05:51 Clear 36 2.2 33 0.6 89 89 SW 5 7 30.24 1024 10 16 0.00 0.00
6:51 am 06:51 Clear 34 1.1 32 0 92 92 Calm 30.24 1024 10 16 0.00 0.00
7:51 am 07:51 Sunny 36 2.2 34 1.1 93 93 Calm 30.25 1025 10 16 0.00 0.00
8:51 am 08:51 Sunny 40 4.4 36 2.2 86 86 SSW 5 7 30.29 1026 10 16 0.00 0.00
9:51 am 09:51 Sunny 43 6.1 37 2.8 80 80 Calm 30.29 1026 10 16 0.00 0.00
10:51 am 10:51 Sunny 47 8.3 36 2.2 66 66 Calm 30.27 1025 10 16 0.00 0.00
11:51 am 11:51 Sunny 49 9.4 36 2.2 61 61 Calm 30.27 1025 10 16 0.00 0.00
12:51 pm 12:51 Sunny 53 11.7 36 2.2 52 52 Calm 30.23 1024 10 16 0.00 0.00
1:51 pm 13:51 Sunny 54 12.2 36 2.2 51 51 WSW 3 6 30.20 1023 10 16 0.00 0.00
2:51 pm 14:51 Sunny 57 13.9 37 2.8 47 47 Calm 30.18 1022 10 16 0.00 0.00
3:51 pm 15:51 Sunny 59 15 38 3.3 46 46 Calm 30.18 1022 10 16 0.00 0.00
4:51 pm 16:51 Sunny 57 13.9 40 4.4 53 53 W 3 6 30.17 1022 10 16 0.00 0.00
5:51 pm 17:51 Clear 50 10 39 3.9 66 66 NW 5 7 30.21 1023 10 16 0.00 0.00
6:51 pm 18:51 Clear 50 10 39 3.9 66 66 NNW 8 13 30.22 1023 10 16 0.00 0.00
7:51 pm 19:51 Clear 50 10 39 3.9 66 66 Calm 30.23 1024 10 16 0.00 0.00
8:51 pm 20:51 Clear 48 8.9 39 3.9 71 71 SE 3 6 30.25 1024 10 16 0.00 0.00
9:51 pm 21:51 Clear 47 8.3 40 4.4 77 77 Calm 30.25 1024 10 16 0.00 0.00
10:51 pm 22:51 Clear 45 7.2 41 5 86 86 Calm 30.26 1025 10 16 0.00 0.00
11:51 pm 23:51 Clear 46 7.8 41 5 83 83 E 6 9 30.24 1024 10 16 0.00 0.00

Powered by AerisWeather